Izaña en Tenerife

latitud = 28° 18' 32''N | longitud = 016° 29' 58''W
2371 metros sobre el nivel del mar | datos mensuales

Fecha, hora, temperatura, viento dirección y velocidad, humedad y presión.

  • 14-10-2018 18:00:00 | 16.60°C | Este |5.00 km/h | 47.00% | 770.40 hPa
  • 14-10-2018 17:00:00 | 15.80°C | Noroeste |17.00 km/h | 49.00% | 770.30 hPa
  • 14-10-2018 16:00:00 | 16.60°C | Noroeste |15.00 km/h | 50.00% | 770.40 hPa
  • 14-10-2018 15:00:00 | 15.70°C | Norte |13.00 km/h | 53.00% | 770.50 hPa
  • 14-10-2018 14:00:00 | 14.20°C | Este |11.00 km/h | 84.00% | 770.80 hPa
  • 14-10-2018 13:00:00 | 15.50°C | Nordeste |8.00 km/h | 57.00% | 771.20 hPa
  • 14-10-2018 12:00:00 | 15.50°C | Norte |6.00 km/h | 47.00% | 771.40 hPa
  • 14-10-2018 11:00:00 | 14.70°C | Noroeste |12.00 km/h | 48.00% | 771.20 hPa
  • 14-10-2018 10:00:00 | 14.20°C | Noroeste |15.00 km/h | 40.00% | 770.90 hPa
  • 14-10-2018 09:00:00 | 12.40°C | Noroeste |21.00 km/h | 44.00% | 770.30 hPa
  • 14-10-2018 08:00:00 | 11.10°C | Noroeste |21.00 km/h | 48.00% | 770.10 hPa
  • 14-10-2018 07:00:00 | 11.70°C | Noroeste |15.00 km/h | 42.00% | 770.00 hPa
  • 14-10-2018 06:00:00 | 11.80°C | Noroeste |14.00 km/h | 44.00% | 770.10 hPa
  • 14-10-2018 05:00:00 | 11.80°C | Noroeste |23.00 km/h | 43.00% | 770.00 hPa
  • 14-10-2018 04:00:00 | 11.90°C | Noroeste |21.00 km/h | 47.00% | 770.30 hPa
  • 14-10-2018 03:00:00 | 12.10°C | Noroeste |26.00 km/h | 45.00% | 770.90 hPa
  • 14-10-2018 02:00:00 | 11.20°C | Noroeste |22.00 km/h | 45.00% | 771.00 hPa
  • 14-10-2018 01:00:00 | 11.50°C | Noroeste |22.00 km/h | 50.00% | 771.50 hPa
  • 14-10-2018 00:00:00 | 11.10°C | Noroeste |16.00 km/h | 45.00% | 771.80 hPa
  • 13-10-2018 23:00:00 | 11.30°C | Noroeste |14.00 km/h | 53.00% | 772.00 hPa
  • 13-10-2018 22:00:00 | 11.10°C | Noroeste |26.00 km/h | 47.00% | 771.50 hPa
  • 13-10-2018 21:00:00 | 11.40°C | Noroeste |22.00 km/h | 51.00% | 771.30 hPa
  • 13-10-2018 20:00:00 | 13.00°C | Noroeste |24.00 km/h | 44.00% | 771.00 hPa
  • 13-10-2018 19:00:00 | 15.40°C | Noroeste |17.00 km/h | 46.00% | 771.10 hPa